This demonstration page uses our WeatherBlox Daily Observations layout. Learn more.

Left ArrowRight Arrow

38.89511, -77.03637

Hourly Observations for January 18, 2021

Temp ( °F °C ) Dew Point ( °F °C ) Humidity (%) Winds ( mph kmh ) Pressure ( in mb ) Visibility ( mi km ) Precip ( " mm )
12:52 am 00:52 Mostly Clear 38 3.3 28 -2.2 68 68 SW 5 7 29.78 1008 10 16 0.00 0.00
1:52 am 01:52 Mostly Cloudy 37 2.8 28 -2.2 70 70 SSW 5 7 29.79 1009 10 16 0.00 0.00
2:52 am 02:52 Mostly Clear 38 3.3 27 -2.8 65 65 SSW 5 7 29.79 1009 10 16 0.00 0.00
3:52 am 03:52 Mostly Clear 37 2.8 30 -1.1 76 76 S 5 7 29.78 1009 10 16 0.00 0.00
4:52 am 04:52 Mostly Clear 37 2.8 27 -2.8 67 67 SSW 5 7 29.78 1008 10 16 0.00 0.00
5:52 am 05:52 Mostly Cloudy 35 1.7 27 -2.8 72 72 SSW 3 6 29.80 1009 10 16 0.00 0.00
6:52 am 06:52 Mostly Cloudy 36 2.2 28 -2.2 73 73 SSE 3 6 29.81 1009 10 16 0.00 0.00
7:52 am 07:52 Mostly Cloudy 35 1.7 28 -2.2 76 76 SSW 5 7 29.82 1010 10 16 0.00 0.00
8:52 am 08:52 Mostly Cloudy 38 3.3 28 -2.2 68 68 SW 6 9 29.84 1011 10 16 0.00 0.00
9:52 am 09:52 Mostly Cloudy 41 5 28 -2.2 60 60 W 5 7 29.85 1011 10 16 0.00 0.00
10:52 am 10:52 Mostly Cloudy 45 7.2 24 -4.4 44 44 WNW 13 20 29.85 1011 10 16 0.00 0.00
11:52 am 11:52 Mostly Cloudy 45 7.2 20 -6.7 37 37 WNW 16 26 29.85 1011 10 16 0.00 0.00
12:52 pm 12:52 Mostly Cloudy 45 7.2 20 -6.7 37 37 WNW 14 22 29.84 1011 10 16 0.00 0.00
1:52 pm 13:52 Mostly Cloudy 46 7.8 21 -6.1 37 37 WNW 13 20 29.85 1011 10 16 0.00 0.00
2:52 pm 14:52 Mostly Cloudy 45 7.2 20 -6.7 37 37 W 17 28 29.87 1012 10 16 0.00 0.00
3:52 pm 15:52 Mostly Cloudy 44 6.7 20 -6.7 38 38 W 12 19 29.90 1012 10 16 0.00 0.00
4:52 pm 16:52 Mostly Cloudy 43 6.1 18 -7.8 37 37 W 15 24 29.94 1014 10 16 0.00 0.00
5:52 pm 17:52 Mostly Cloudy 41 5 17 -8.3 38 38 WNW 15 24 29.98 1015 10 16 0.00 0.00
6:52 pm 18:52 Mostly Cloudy 40 4.4 19 -7.2 43 43 WNW 8 13 30.01 1016 10 16 0.00 0.00
7:52 pm 19:52 Cloudy 41 5 19 -7.2 41 41 W 9 15 30.04 1017 10 16 0.00 0.00
8:52 pm 20:52 Mostly Cloudy 40 4.4 20 -6.7 45 45 W 8 13 30.06 1018 10 16 0.00 0.00
9:52 pm 21:52 Mostly Cloudy 38 3.3 20 -6.7 48 48 W 8 13 30.09 1019 10 16 0.00 0.00
10:52 pm 22:52 Mostly Cloudy 38 3.3 20 -6.7 48 48 WSW 6 9 30.09 1019 10 16 0.00 0.00
11:52 pm 23:52 Mostly Cloudy 38 3.3 21 -6.1 51 51 SW 5 7 30.09 1019 10 16 0.00 0.00

Powered by AerisWeather